Regional Weather Roundup
Issued by NWS

Home | Current Version | Previous Version | Text Only | Print | Product List | Glossary On
Versions: 1 2 3 4 5 6 7 8 9 10 11 12 13 14 15 16 17 18 19 20 21 22 23 24 25 26 27 28 29 30 31 32 33 34 35 36 37 38 39 40 41 42 43 44 45 46 47 48 49 50
000
ASUS44 KMEG 032210
RWRTN
TENNESSEE HOURLY STATE WEATHER ROUNDUP
NATIONAL WEATHER SERVICE MEMPHIS TN
500 PM CDT MON AUG 03 2015

TNZ002-004-019-021-049-052-054-088>092-032300-
WEST TENNESSEE

CITY           SKY/WX    TMP DP  RH WIND       PRES   REMARKS
MEMPHIS INTL   PTSUNNY   97  68  38 NW10      29.92S HX 102
NWS MEMPHIS      N/A     97 N/A N/A MISG        N/A
JACKSON        MOSUNNY   95  66  38 W7        29.92S HX  98
DYERSBURG        N/A    N/A N/A N/A MISG        N/A
PARIS          SUNNY     90  70  51 VRB5      29.93R HX  95
LEXINGTON      SUNNY     93  68  43 CALM      29.91F HX  97
$$

TNZ008-025-027-028-033-062-065-066-032300-
NORTH MIDDLE TENNESSEE

CITY           SKY/WX    TMP DP  RH WIND       PRES   REMARKS
NASHVILLE      MOSUNNY   94  63  35 W9        29.91S HX  95
CLARKSVILLE    SUNNY     90  71  53 W9        29.91S HX  96
SMYRNA         PTSUNNY   96  69  41 VRB3      29.92S HX 101
CROSSVILLE     MOSUNNY   86  64  47 W6        30.00F
$$

TNZ061-075-076-078-094-096-097-032300-
SOUTH MIDDLE TENNESSEE

CITY           SKY/WX    TMP DP  RH WIND       PRES   REMARKS
FAYETTEVILLE     N/A     91  64  40 CALM      29.94S HX  93
TULLAHOMA      MOSUNNY   90  64  43 VRB5      29.96S HX  91
SHELBYVILLE    SUNNY     95  70  43 VRB6      29.93F HX 101
$$

TNZ017-018-042-046-047-032300-
NORTHEAST TENNESSEE

CITY           SKY/WX    TMP DP  RH WIND       PRES   REMARKS
TRI CITIES     MOSUNNY   88  53  30 SW9       29.96S
ELIZABETHTON   CLEAR     88  55  33 W5        29.96F
$$

TNZ012-013-036-069-073-074-032300-
CENTRAL EAST TENNESSEE

CITY           SKY/WX    TMP DP  RH WIND       PRES   REMARKS
KNOXVILLE      MOSUNNY   90  56  31 W6        29.93F
OAK RIDGE      MOSUNNY   91  62  37 VRB3      29.94F HX  91
$$

TNZ083-085-099-032300-
SOUTHEAST TENNESSEE

CITY           SKY/WX    TMP DP  RH WIND       PRES   REMARKS
CHATTANOOGA    MOSUNNY   94  56  27 NE6       29.92F HX  92
$$

SKY/WX REPORTED AS FAIR MEANS FEW OR NO CLOUDS BELOW
12 THOUSAND FEET.




USA.gov is the U.S. government's official web portal to all federal, state and local government web resources and services.